Location: Castiglione Fibocchi
(43.5333°N, 11.7667°E)
Time: 09:18:01
(UTC+00:00)

Cosmos 1758 - Pass Details

Date: 15 August 2020
Orbit: 540 x 563 km, 82.5° (Epoch: 19 September)

Event Time Altitude Azimuth Distance (km) Brightness Sun altitude
Exits shadow 01:08:17 44° 16° (NNE) 771 4.4 -27.2°
Drops below altitude 10° 01:11:05 10° 10° (N) 1,826 6.8 -26.9°
Sets 01:13:15 0° 10° (N) 2,721 7.9 -26.7°
